[[{"header":{"parameterUnit":"m.s-1","parameterCategory":1,"la1":30.2991,"la2":30.254,"lo1":-89.0895,"lo2":-89.0444,"dy":0.0017,"dx":0.0017,"nx":28,"ny":28,"refTime":"2023-09-24T03:00:00:Z","depth":0,"parameterNumber":2,"parameterNumberName":"U-component_of_WINDS"},"data":[0,0,0,0,0,0,0,0,0,0,0,0,0,0,0,0,0,0,0,0,0,0,0,0,0,0,0,0,0,0,0,0,0,0,0,0,0,0,0,0,0,0,0,0,0,0,0,0,0,0,0,0,0,0,0,0,0,0,-0.543,-0.543,0,-0.5439,-0.5439,-0.5439,-0.5428,-0.5428,-0.5428,-0.5427,-0.5437,-0.5438,-0.5438,0,0,0,0,0,0,0,0,0,0,0,0,0,-0.5405,-0.5406,-0.543,-0.543,-0.543,-0.5439,-0.5439,-0.5439,-0.5429,-0.5428,-0.5428,-0.5427,-0.5437,-0.5438,-0.5438,0,0,0,0,0,0,0,0,0,0,0,0,0,-0.5415,-0.5406,-0.543,-0.5426,-0.5425,-0.5439,-0.5439,-0.5439,-0.5429,-0.5428,-0.5427,-0.5427,-0.5437,-0.5438,-0.5438,-0.5456,0,0,-0.5441,-0.5442,0,0,0,0,0,0,0,0,-0.5415,-0.5416,-0.5426,-0.5426,-0.5426,-0.5432,-0.5434,-0.5445,-0.5429,-0.5427,-0.5427,-0.5427,-0.5436,-0.5437,-0.544,-0.5457,-0.5457,-0.5441,-0.5442,-0.5442,-0.5443,0,0,0,0,0,0,0,-0.5414,-0.5416,-0.5433,-0.5426,-0.5426,-0.5424,-0.5425,-0.5436,-0.5435,-0.5428,-0.5427,-0.5428,-0.5436,-0.5439,-0.544,-0.5457,-0.5441,-0.5442,-0.5443,-0.5443,-0.5491,-0.5492,0,0,0,0,0,0,-0.5413,-0.5415,-0.5433,-0.5434,-0.5419,-0.5425,-0.5426,-0.5431,-0.5435,-0.5435,-0.5428,-0.5427,-0.5438,-0.5439,-0.544,-0.5463,-0.5442,-0.5443,-0.5444,-0.549,-0.5491,-0.5492,0,0,0,0,0,0,-0.5413,-0.5415,-0.5433,-0.5424,-0.5426,-0.5426,-0.5431,-0.5431,-0.5434,-0.5435,-0.5435,-0.5432,-0.5437,-0.5439,-0.5453,-0.5463,-0.5444,-0.5445,-0.549,-0.5491,-0.5492,-0.5507,0,0,0,0,0,0,-0.5412,-0.5415,-0.5421,-0.5424,-0.5427,-0.5444,-0.5432,-0.5432,-0.5436,-0.5435,-0.5439,-0.5439,-0.5437,-0.5451,-0.5454,-0.5464,-0.5445,-0.5489,-0.549,-0.5491,-0.5506,-0.5508,-0.5511,0,0,0,0,0,-0.5411,-0.5425,-0.5422,-0.5424,-0.5434,-0.5445,-0.5446,-0.5444,-0.5437,-0.5444,-0.5445,-0.5439,-0.5461,-0.5453,-0.5455,-0.5466,-0.5488,-0.549,-0.5491,-0.5504,-0.5508,-0.5511,0,0,0,0,0,0,-0.5423,-0.5425,-0.5422,-0.5436,-0.5441,-0.5443,-0.5451,-0.5447,-0.5454,-0.5452,-0.5449,-0.545,-0.5465,-0.5467,-0.5457,-0.5484,-0.5474,-0.5476,-0.5483,-0.5486,-0.5489,-0.5488,-0.5446,0,0,0,0,0,-0.5427,-0.5435,-0.5437,-0.545,-0.5452,-0.5451,-0.5456,-0.5454,-0.5458,-0.546,-0.5462,-0.5467,-0.5475,-0.548,-0.5488,-0.5506,-0.5507,-0.5514,-0.5517,-0.5519,-0.5521,-0.5533,-0.5536,-0.5497,-0.5497,-0.5497,0,0,-0.5436,-0.5438,-0.5443,-0.5452,-0.5455,-0.5464,-0.5453,-0.5463,-0.547,-0.5461,-0.5475,-0.5477,-0.5482,-0.5498,-0.5505,-0.55,-0.5532,-0.5521,-0.5523,-0.5524,-0.5535,-0.5538,-0.5542,-0.5498,-0.5498,-0.5498,0,0,-0.5456,-0.5458,-0.547,-0.5474,-0.5479,-0.5479,-0.5482,-0.5485,-0.5486,-0.55,-0.5494,-0.5503,-0.5517,-0.5521,-0.5525,-0.555,-0.5545,-0.5552,-0.5566,-0.5577,-0.558,-0.5583,-0.5593,-0.5597,-0.5554,-0.5554,-0.5554,0,-0.5467,-0.548,-0.5477,-0.5488,-0.5492,-0.5485,-0.5498,-0.5502,-0.5509,-0.5513,-0.5507,-0.5525,-0.5528,-0.5546,-0.5552,-0.5555,-0.556,-0.5552,-0.558,-0.5583,-0.5585,-0.5595,-0.5599,-0.5555,-0.5555,-0.5555,-0.5555,0,-0.5493,-0.5503,-0.5512,-0.5519,-0.5525,-0.5536,-0.5536,-0.5542,-0.554,-0.5541,-0.5555,-0.5559,-0.5568,-0.5572,-0.5569,-0.559,-0.5587,-0.5581,-0.557,-0.559,-0.5599,-0.5603,-0.5557,-0.5556,-0.5556,-0.5556,0,0,-0.5521,-0.5528,-0.5531,-0.5535,-0.5541,-0.5549,-0.556,-0.5569,-0.5576,-0.5581,-0.5592,-0.5605,-0.5599,-0.5604,-0.5602,-0.5612,-0.5633,-0.5604,-0.5604,-0.5611,-0.5658,-0.5664,-0.5668,-0.563,-0.563,-0.5631,-0.5658,0,-0.5543,-0.5563,-0.5561,-0.5581,-0.5591,-0.5585,-0.5596,-0.5601,-0.5602,-0.5611,-0.5613,-0.5622,-0.5614,-0.5617,-0.5626,-0.5628,-0.5643,-0.5626,-0.5641,-0.5641,-0.5641,-0.5672,-0.5678,-0.5703,-0.5661,-0.5662,-0.5662,0,-0.5571,-0.5578,-0.5599,-0.5605,-0.5609,-0.5618,-0.5627,-0.5635,-0.5642,-0.5642,-0.5649,-0.5645,-0.5659,-0.5647,-0.5666,-0.5655,-0.5661,-0.5663,-0.5664,-0.5666,-0.5654,-0.5676,-0.5711,-0.5715,-0.5668,-0.5667,-0.5667,0,-0.5591,-0.5606,-0.562,-0.5624,-0.5631,-0.5638,-0.5641,-0.5647,-0.5653,-0.5661,-0.5665,-0.5675,-0.568,-0.5688,-0.5688,-0.5679,-0.5708,-0.5696,-0.5709,-0.571,-0.5716,-0.5716,-0.5753,-0.5718,-0.5718,-0.5718,-0.5718,0,-0.5616,-0.5629,-0.563,-0.5639,-0.5654,-0.5652,-0.5668,-0.567,-0.5676,-0.5686,-0.5682,-0.5692,-0.5691,-0.5701,-0.5701,-0.5718,-0.572,-0.5721,-0.5721,-0.5722,-0.5722,-0.5727,-0.5725,-0.5719,-0.5719,-0.5719,-0.5718,0,-0.5641,-0.5641,-0.5657,-0.5663,-0.5665,-0.5676,-0.5681,-0.569,-0.5692,-0.5705,-0.5708,-0.5711,-0.5723,-0.5723,-0.5737,-0.5737,-0.5758,-0.5755,-0.5756,-0.5756,-0.577,-0.5769,-0.5812,-0.5819,-0.5778,-0.5779,-0.5779,0,-0.5657,-0.5668,-0.5675,-0.5681,-0.5685,-0.5696,-0.5702,-0.5701,-0.5708,-0.5717,-0.5726,-0.5738,-0.5747,-0.5767,-0.577,-0.5781,-0.578,-0.5794,-0.5781,-0.5783,-0.5782,-0.5782,-0.5783,-0.5797,-0.5797,-0.5798,-0.5798,0,-0.5687,-0.5687,-0.5697,-0.5707,-0.5715,-0.5723,-0.573,-0.5736,-0.5736,-0.5745,-0.5757,-0.5764,-0.5779,-0.5791,-0.5802,-0.5806,-0.5803,-0.5802,-0.5806,-0.5808,-0.5808,-0.581,-0.5764,-0.5801,-0.5801,-0.5801,-0.5801,-0.58,-0.5709,-0.5719,-0.5726,-0.5737,-0.5742,-0.575,-0.5759,-0.5762,-0.5773,-0.5785,-0.5784,-0.5798,-0.5806,-0.582,-0.5825,-0.5837,-0.5832,-0.5837,-0.5839,-0.5841,-0.5843,-0.5806,-0.5839,-0.5839,-0.5839,-0.5839,-0.5839,0,-0.574,-0.5744,-0.5755,-0.5765,-0.5775,-0.577,-0.5779,-0.5787,-0.58,-0.5807,-0.5817,-0.5832,-0.5844,-0.5849,-0.5861,-0.587,-0.5869,-0.5873,-0.5873,-0.5874,-0.5846,-0.5842,-0.5874,-0.5874,-0.5874,-0.5874,-0.5874,-0.5874,-0.5757,-0.5773,-0.5775,-0.5794,-0.5799,-0.5813,-0.5818,-0.5826,-0.5832,-0.5849,-0.5859,-0.5862,-0.5869,-0.5882,-0.5894,-0.5895,-0.59,-0.5906,-0.5906,-0.588,-0.5876,-0.5873,-0.5869,-0.5907,-0.5907,-0.5934,-0.5935,-0.5935]},{"header":{"parameterUnit":"m.s-1","parameterCategory":1,"la1":30.2991,"la2":30.254,"lo1":-89.0895,"lo2":-89.0444,"dy":0.0017,"dx":0.0017,"nx":28,"ny":28,"refTime":"2023-09-24T03:00:00:Z","depth":0,"parameterNumber":3,"parameterNumberName":"V-component_of_WINDS"},"data":[0,0,0,0,0,0,0,0,0,0,0,0,0,0,0,0,0,0,0,0,0,0,0,0,0,0,0,0,0,0,0,0,0,0,0,0,0,0,0,0,0,0,0,0,0,0,0,0,0,0,0,0,0,0,0,0,0,0,3.2631,3.263,0,3.2579,3.2579,3.2578,3.25,3.2499,3.2497,3.2496,3.2444,3.2444,3.2444,0,0,0,0,0,0,0,0,0,0,0,0,0,3.2662,3.2662,3.2631,3.263,3.2629,3.2579,3.2579,3.2578,3.25,3.2499,3.2497,3.2496,3.2444,3.2444,3.2444,0,0,0,0,0,0,0,0,0,0,0,0,0,3.2634,3.2662,3.2631,3.2585,3.258,3.2579,3.2578,3.2578,3.2501,3.2499,3.2497,3.2495,3.2444,3.2444,3.2444,3.2485,0,0,3.2444,3.2444,0,0,0,0,0,0,0,0,3.2635,3.2633,3.2592,3.2588,3.2583,3.2544,3.2571,3.2547,3.2501,3.2531,3.2496,3.2494,3.2479,3.2476,3.2471,3.2482,3.248,3.2444,3.2444,3.2444,3.2444,0,0,0,0,0,0,0,3.2637,3.2634,3.261,3.2592,3.2586,3.2567,3.256,3.2566,3.2517,3.2528,3.2522,3.2517,3.2476,3.2471,3.2469,3.2479,3.2444,3.2444,3.2444,3.2443,3.2519,3.2521,0,0,0,0,0,0,3.2646,3.2636,3.2612,3.2609,3.2604,3.2568,3.2561,3.2559,3.2517,3.2509,3.2519,3.2514,3.2473,3.247,3.2467,3.2509,3.2444,3.2443,3.2443,3.2516,3.2519,3.2521,0,0,0,0,0,0,3.2647,3.2645,3.2614,3.2621,3.2616,3.2569,3.2568,3.2559,3.2553,3.251,3.2501,3.2523,3.2471,3.2467,3.248,3.2507,3.2443,3.2443,3.2514,3.2517,3.252,3.2596,0,0,0,0,0,0,3.2648,3.2646,3.266,3.2622,3.2616,3.2628,3.2569,3.2559,3.2553,3.2546,3.2511,3.2504,3.2469,3.2481,3.248,3.2505,3.2443,3.2511,3.2515,3.2519,3.2591,3.2601,3.261,0,0,0,0,0,3.265,3.2685,3.2662,3.2659,3.2633,3.263,3.2626,3.2585,3.2556,3.257,3.2542,3.2505,3.2505,3.2483,3.2481,3.2507,3.251,3.2514,3.2519,3.2587,3.2599,3.261,0,0,0,0,0,0,3.2728,3.2679,3.2653,3.2676,3.2658,3.2617,3.2633,3.26,3.259,3.2584,3.2534,3.2527,3.2545,3.2528,3.2505,3.2543,3.2501,3.2506,3.2553,3.2565,3.2575,3.2577,3.2443,0,0,0,0,0,3.2748,3.2749,3.2706,3.2731,3.2723,3.268,3.2677,3.2647,3.2626,3.2618,3.2591,3.2573,3.2568,3.2566,3.2559,3.2589,3.2579,3.2606,3.2615,3.2624,3.2627,3.2639,3.265,3.2537,3.2537,3.2536,0,0,3.2789,3.2762,3.2766,3.2746,3.2728,3.273,3.2674,3.2679,3.268,3.2619,3.2628,3.2609,3.2584,3.2605,3.2613,3.2591,3.2657,3.263,3.2636,3.2636,3.2645,3.2656,3.2665,3.254,3.2539,3.2539,0,0,3.2864,3.2845,3.2862,3.2846,3.2819,3.279,3.2795,3.2759,3.2742,3.2752,3.2705,3.2706,3.27,3.2683,3.2674,3.2743,3.2707,3.2743,3.2793,3.2805,3.2814,3.2821,3.2843,3.2852,3.2747,3.2747,3.2748,0,3.2919,3.2919,3.2876,3.2883,3.2875,3.282,3.2836,3.2822,3.2796,3.2791,3.2767,3.2756,3.2736,3.2751,3.2768,3.2764,3.2766,3.2745,3.2816,3.2823,3.2829,3.285,3.2859,3.2752,3.2751,3.2751,3.275,0,3.2987,3.2988,3.3005,3.298,3.2974,3.2986,3.2944,3.2943,3.2914,3.2887,3.2896,3.2871,3.2857,3.2859,3.2831,3.2869,3.2856,3.2825,3.2782,3.2845,3.2863,3.2871,3.2758,3.2756,3.2755,3.2754,0,0,3.3108,3.3058,3.3065,3.3052,3.3018,3.3018,3.3028,3.3014,3.3013,3.2997,3.3003,3.2998,3.2968,3.2958,3.2928,3.2939,3.2992,3.2906,3.2905,3.2921,3.3031,3.3052,3.3062,3.297,3.2971,3.2972,3.3032,0,3.3175,3.3187,3.3148,3.317,3.317,3.3118,3.3126,3.3106,3.3082,3.3078,3.3052,3.3048,3.3011,3.3004,3.3013,3.2984,3.3013,3.298,3.2973,3.2973,3.2978,3.3072,3.3096,3.3153,3.3039,3.304,3.3041,0,3.3254,3.3241,3.3263,3.3227,3.3225,3.3233,3.3216,3.3214,3.319,3.3172,3.316,3.3125,3.3131,3.3091,3.3097,3.3075,3.307,3.3056,3.3057,3.3053,3.3009,3.3068,3.3171,3.3179,3.3052,3.3051,3.3051,0,3.3338,3.3326,3.3336,3.3327,3.3286,3.3293,3.3276,3.325,3.3244,3.323,3.3225,3.3212,3.3204,3.3195,3.3156,3.3131,3.3167,3.3124,3.315,3.3151,3.3158,3.3158,3.3259,3.3159,3.3159,3.3159,3.3159,0,3.3415,3.343,3.3373,3.338,3.3395,3.335,3.3366,3.3344,3.3321,3.3322,3.3277,3.3279,3.3229,3.3225,3.3196,3.3204,3.3202,3.3186,3.3177,3.3189,3.319,3.3183,3.3177,3.3161,3.3161,3.316,3.316,0,3.351,3.3473,3.3481,3.3441,3.3431,3.3444,3.341,3.3414,3.3387,3.3389,3.3386,3.3344,3.3337,3.3298,3.3283,3.3263,3.3281,3.3266,3.3289,3.3282,3.3309,3.3306,3.3407,3.3417,3.3314,3.3315,3.3316,0,3.356,3.357,3.3531,3.3529,3.3514,3.351,3.3503,3.3459,3.3454,3.3427,3.3434,3.3423,3.3412,3.3403,3.3371,3.3358,3.3341,3.3377,3.3338,3.3348,3.3338,3.3337,3.3337,3.3384,3.3386,3.3387,3.3388,0,3.3653,3.3634,3.3625,3.361,3.3603,3.3589,3.3573,3.3573,3.3524,3.3521,3.3512,3.3504,3.3487,3.3476,3.3458,3.344,3.3405,3.34,3.3405,3.3415,3.3427,3.3419,3.3308,3.3398,3.3397,3.3396,3.3396,3.3395,3.3725,3.3731,3.3704,3.3696,3.3679,3.3664,3.3665,3.3638,3.3631,3.3613,3.3588,3.3583,3.3558,3.3529,3.3514,3.3509,3.349,3.3497,3.3499,3.3501,3.3505,3.343,3.3506,3.3506,3.3506,3.3505,3.3505,0,3.3813,3.3793,3.3786,3.3764,3.3757,3.3726,3.3706,3.3702,3.3698,3.3678,3.3667,3.3657,3.3646,3.3613,3.3598,3.3601,3.3584,3.3598,3.3596,3.3592,3.3525,3.3521,3.3611,3.3611,3.3611,3.3611,3.3611,3.3611,3.3858,3.3865,3.3843,3.3841,3.3821,3.3816,3.3806,3.3792,3.3775,3.3766,3.3757,3.3735,3.3709,3.3692,3.368,3.367,3.3666,3.3685,3.367,3.3607,3.3597,3.3587,3.3583,3.3685,3.3685,3.3737,3.3737,3.3738]}]]